Regional Weather Roundup
Issued by NWS

Home | Current Version | Previous Version | Graphics & Text | Print | Product List | Glossary On
Versions: 1 2 3 4 5 6 7 8 9 10 11 12 13 14 15 16 17 18 19 20 21 22 23 24 25 26 27 28 29 30 31 32 33 34 35 36 37 38 39 40 41 42 43 44 45 46 47 48 49 50
628
ASUS43 KFSD 100910
RWRSD

WEATHER ROUNDUP FOR SOUTH DAKOTA
NATIONAL WEATHER SERVICE SIOUX FALLS SD
300 AM CST WED FEB 10 2016

NOTE: "FAIR" INDICATES FEW OR NO CLOUDS BELOW 12,000 FEET WITH NO
SIGNIFICANT WEATHER AND/OR OBSTRUCTIONS TO VISIBILITY.


SDZ001>005-009-010-012>017-101000-
NORTHWEST AND NORTH CENTRAL SOUTH DAKOTA

CITY           SKY/WX    TMP DP  RH WIND       PRES   REMARKS
BUFFALO          N/A     36  26  67 W13       29.82F
FAITH            N/A     32  25  75 SW3       29.89F
MOBRIDGE       CLOUDY    27  20  75 E15       29.90F WCI  15
$$

SDZ012>016-024>037-041>051-057-063-072>074-101000-
SOUTHWEST AND SOUTH CENTRAL SOUTH DAKOTA

CITY           SKY/WX    TMP DP  RH WIND       PRES   REMARKS
RAPID CTY ARPT CLEAR     32  25  75 CALM      29.93F
PIERRE         CLEAR     25  22  88 E7        29.93F WCI  17
CUSTER         CLEAR     43  21  41 NW13G23   30.00F
ELLSWORTH AFB  CLEAR     33  24  69 W8        29.91F WCI  26
PHILIP         CLEAR     31  27  85 W8        29.92F WCI  23
PINE RIDGE     CLEAR     34  25  69 W6        30.01F WCI  29
SPEARFISH      FAIR      46  25  42 W9        29.96F
WINNER         FAIR      34  25  69 SW6       29.94F WCI  29
$$

SDZ004>011-016>023-039-040-101000-
NORTHEAST SOUTH DAKOTA

CITY           SKY/WX    TMP DP  RH WIND       PRES   REMARKS
ABERDEEN       LGT SNOW  19  14  81 E9        30.05F WCI   8
WATERTOWN      FLURRIES  14   3  61 E6        30.03F WCI   5
BROOKINGS      FLURRIES  15   9  76 SE6       30.04F WCI   6
SISSETON         N/A     10   5  80 E7        30.09F WCI  -1
$$

SDZ017-020-022-023-036>040-048>070-101000-
SOUTHEAST SOUTH DAKOTA

CITY           SKY/WX    TMP DP  RH WIND       PRES   REMARKS
SIOUX FALLS    CLOUDY    21  12  68 E7        30.07F WCI  12
HURON          CLOUDY    24  19  81 SE12      30.02F WCI  13
CHAMBERLAIN    CLOUDY    28  23  83 E6        29.96F WCI  21
MITCHELL       CLOUDY    26  19  74 SE8       30.04F WCI  18
YANKTON        CLOUDY    21  16  79 E7        30.05F WCI  13
$$

ABBREVIATIONS USED IN REMARKS
   TC - TEMPERATURE IN CELSIUS
  WCI - WIND CHILL INDEX
   HX - HEAT INDEX
  VSB - VISIBILITY





USA.gov is the U.S. government's official web portal to all federal, state and local government web resources and services.